星链-30431 (STARLINK-30431 )

导读

STARLINK-30431是美国太空探索技术公司(SpaceX)星链(Starlink)星座中的一颗卫星,于2023年9月12日发射升空。星链计划旨在搭建全球覆盖的低轨互联网通信星座,提供高速宽带服务,该卫星采用平板设计,搭载氪工质霍尔推进器,具备自主避撞能力,服役寿命末期会主动离轨再入大气层焚毁。

基本信息
目录编号:
57852
目录名称:
STARLINK-30431
国际标识:
2023-141N
轨道中心:
EARTH
卫星名称:
星链-30431
卫星全名:
星链-30431 (STARLINK-30431 )
卫星状态:
在轨 (已飞行1088 天)
发射日期:
2023-09-12 UTC
国别 :
美国 (US)
星等 :
--
轨道信息
数据来源 国际轨道数据
星历时间: 2026-09-04T03:18:47+0800
9小时前
查看轨道信息
半长轴: 6840.87km
偏心率: 0.0001388
轨道倾角: 53.160°
近地点辐角 90.538°
升交点赤经 175.706°
平近点角 269.578°
近地点: 461.783km
远地点: 463.683km
周期: 93.848分钟
每日圈数: 15.3439
详细信息
固有亮度:
5
最大亮度:
0.3
卫星平台:
Starlink v2.0 mini
覆盖范围:
全球
运营商:
太空探索技术公司
运营商所在国:
美国
制造商(研发单位):
太空探索技术公司
制造商所在国:
美国
使用方式:
暂无
卫星简介
星链(Starlink)计划是由太空探索技术公司(SpaceX)提出的一个巨型低轨卫星互联网星座项目,计划在2019年至2024年间在太空搭建由约1.2万颗卫星组成的“星链”网络,其中1584颗将部署在地球上空550千米处的近地轨道,并从2020年开始工作。该卫星仍在工作。
2D轨道图
3D轨道图
轨道高度分析图
轨道倾角分析图
轨道综合分析图
查看轨道综合分析图
交会数据列表
事件ID 空间交会对象 最接近时刻(TCA) 交会距离 交会风险概率(CRP) 交会风险指数(CRI) 操作
CDM_260905-032505-785206-466521
2026-09-05T
03:25:50+0000
1.646 km
极远距离
4.342505E-6 低风险 0.48
CDM_260905-015205-785206-466521
2026-09-05T
01:52:03+0000
2.164 km
极远距离
2.077755E-6 低风险 0.41
CDM_260905-115305-785205-846921
2026-09-05T
11:53:01+0000
2.440 km
极远距离
1.832026E-6 低风险 0.4
CDM_260904-193305-231305-785221
2026-09-04T
19:33:26+0000
2.910 km
极远距离
1.24598E-6 低风险 0.37
CDM_260904-191305-785206-308321
2026-09-04T
19:13:32+0000
2.812 km
极远距离
1.144151E-6 低风险 0.36